TimeEEST,TemperatureF,Dew PointF,Humidity,Sea Level PressureIn,VisibilityMPH,Wind Direction,Wind SpeedMPH,Gust SpeedMPH,PrecipitationIn,Events,Conditions,WindDirDegrees,DateUTC
12:20 AM,64.4,50.0,59,29.98,-9999.0,NNE,11.5,-,N/A,,Clear,30,2013-07-21 21:20:00
12:50 AM,64.4,48.2,56,29.98,-9999.0,NNE,11.5,-,N/A,,Clear,30,2013-07-21 21:50:00
1:20 AM,62.6,48.2,59,29.98,-9999.0,NNE,9.2,-,N/A,,Clear,30,2013-07-21 22:20:00
1:50 AM,60.8,48.2,63,29.98,-9999.0,NNE,9.2,-,N/A,,Clear,30,2013-07-21 22:50:00
2:20 AM,60.8,48.2,63,29.98,-9999.0,NNE,6.9,-,N/A,,Clear,20,2013-07-21 23:20:00
2:50 AM,60.8,48.2,63,29.98,-9999.0,North,10.4,-,N/A,,Clear,10,2013-07-21 23:50:00
3:00 AM,61,49,54,29.83,12,North,10.4,,,,,10,2013-07-22 00:00:00
3:20 AM,59.0,48.2,67,29.98,-9999.0,North,5.8,-,N/A,,Clear,10,2013-07-22 00:20:00
3:50 AM,59.0,48.2,67,29.98,-9999.0,NNE,5.8,-,N/A,,Clear,20,2013-07-22 00:50:00
4:20 AM,55.4,48.2,77,29.98,-9999.0,NNW,6.9,-,N/A,,Clear,330,2013-07-22 01:20:00
4:50 AM,55.4,48.2,77,29.98,-9999.0,North,3.5,-,N/A,,Clear,360,2013-07-22 01:50:00
5:20 AM,53.6,48.2,82,29.98,-9999.0,Calm,Calm,-,N/A,,Clear,0,2013-07-22 02:20:00
5:50 AM,53.6,46.4,77,29.98,-9999.0,Calm,Calm,-,N/A,,Clear,0,2013-07-22 02:50:00
6:20 AM,55.4,48.2,77,29.98,-9999.0,Calm,Calm,-,N/A,,Clear,0,2013-07-22 03:20:00
6:50 AM,57.2,48.2,72,29.98,-9999.0,Variable,2.3,-,N/A,,Clear,0,2013-07-22 03:50:00
7:20 AM,57.2,50.0,77,29.98,-9999.0,North,2.3,-,N/A,,Clear,360,2013-07-22 04:20:00
7:50 AM,60.8,50.0,68,29.98,-9999.0,Variable,2.3,-,N/A,,Clear,0,2013-07-22 04:50:00
8:20 AM,64.4,51.8,64,29.98,-9999.0,North,2.3,-,N/A,,Clear,360,2013-07-22 05:20:00
8:50 AM,66.2,50.0,56,29.98,6.2,North,6.9,-,N/A,,Scattered Clouds,10,2013-07-22 05:50:00
9:00 AM,66,50,45,29.84,12,North,6.9,,,,Partly Cloudy,10,2013-07-22 06:00:00
9:20 AM,68.0,48.2,49,29.98,6.2,North,11.5,-,N/A,,Scattered Clouds,350,2013-07-22 06:20:00
9:50 AM,68.0,46.4,46,29.98,6.2,North,13.8,-,N/A,,Scattered Clouds,360,2013-07-22 06:50:00
10:20 AM,69.8,48.2,46,29.95,6.2,North,11.5,-,N/A,,Scattered Clouds,10,2013-07-22 07:20:00
10:50 AM,71.6,46.4,41,29.95,6.2,North,11.5,-,N/A,,Scattered Clouds,10,2013-07-22 07:50:00
11:20 AM,71.6,46.4,41,29.95,6.2,North,9.2,-,N/A,,Scattered Clouds,10,2013-07-22 08:20:00
11:50 AM,71.6,46.4,41,29.95,6.2,North,11.5,-,N/A,,Scattered Clouds,360,2013-07-22 08:50:00
12:20 PM,73.4,46.4,38,29.95,6.2,North,9.2,-,N/A,,Scattered Clouds,360,2013-07-22 09:20:00
12:50 PM,75.2,46.4,36,29.92,6.2,NNW,8.1,-,N/A,,Scattered Clouds,340,2013-07-22 09:50:00
1:20 PM,75.2,44.6,34,29.92,6.2,NNE,8.1,-,N/A,,Scattered Clouds,30,2013-07-22 10:20:00
1:50 PM,73.4,46.4,38,29.92,6.2,NE,5.8,-,N/A,,Scattered Clouds,40,2013-07-22 10:50:00
2:20 PM,77.0,46.4,34,29.92,6.2,North,6.9,-,N/A,,Scattered Clouds,10,2013-07-22 11:20:00
2:50 PM,77.0,42.8,29,29.89,6.2,Variable,6.9,-,N/A,,Scattered Clouds,0,2013-07-22 11:50:00
3:00 PM,77,44,20,29.77,12,NNE,6.9,,,,Partly Cloudy,30,2013-07-22 12:00:00
3:20 PM,78.8,42.8,28,29.89,6.2,Variable,9.2,-,N/A,,Scattered Clouds,0,2013-07-22 12:20:00
3:50 PM,77.0,44.6,32,29.89,6.2,NNE,8.1,-,N/A,,Scattered Clouds,20,2013-07-22 12:50:00
4:20 PM,78.8,42.8,28,29.89,6.2,NNE,12.7,-,N/A,,Scattered Clouds,20,2013-07-22 13:20:00
4:50 PM,78.8,42.8,28,29.89,6.2,North,12.7,-,N/A,,Scattered Clouds,10,2013-07-22 13:50:00
5:20 PM,77.0,41.0,28,29.89,6.2,North,10.4,-,N/A,,Scattered Clouds,360,2013-07-22 14:20:00
5:50 PM,78.8,39.2,24,29.86,6.2,NNE,12.7,-,N/A,,Scattered Clouds,20,2013-07-22 14:50:00
6:20 PM,77.0,39.2,26,29.86,6.2,NNE,11.5,-,N/A,,Scattered Clouds,20,2013-07-22 15:20:00
6:50 PM,77.0,41.0,28,29.86,6.2,North,11.5,-,N/A,,Scattered Clouds,10,2013-07-22 15:50:00
7:20 PM,75.2,42.8,31,29.86,6.2,North,13.8,-,N/A,,Scattered Clouds,10,2013-07-22 16:20:00
7:50 PM,73.4,42.8,33,29.89,6.2,North,15.0,-,N/A,,Partly Cloudy,10,2013-07-22 16:50:00
8:20 PM,69.8,44.6,40,29.89,6.2,North,10.4,-,N/A,,Partly Cloudy,360,2013-07-22 17:20:00
8:50 PM,68.0,44.6,43,29.89,-9999.0,NNE,9.2,-,N/A,,Clear,30,2013-07-22 17:50:00
9:00 PM,68,44,31,29.77,12,NNE,9.2,,,,Scattered Clouds,30,2013-07-22 18:00:00
9:20 PM,66.2,44.6,46,29.92,-9999.0,NNE,6.9,-,N/A,,Clear,30,2013-07-22 18:20:00
9:50 PM,66.2,46.4,49,29.92,-9999.0,North,8.1,-,N/A,,Clear,360,2013-07-22 18:50:00
10:20 PM,66.2,46.4,49,29.92,-9999.0,North,10.4,-,N/A,,Clear,360,2013-07-22 19:20:00
10:50 PM,64.4,46.4,52,29.92,-9999.0,North,11.5,-,N/A,,Clear,10,2013-07-22 19:50:00
11:20 PM,64.4,46.4,52,29.95,-9999.0,NNE,12.7,-,N/A,,Clear,20,2013-07-22 20:20:00
11:50 PM,64.4,48.2,56,29.95,-9999.0,North,11.5,-,N/A,,Clear,10,2013-07-22 20:50:00